Location: Chavenne
(46.6022°N, 3.2951°E)
Time: 15:43:23
(UTC+00:00)

Cosmos 2058 Rocket - Pass Details

Date: 09 April 2020
Orbit: 610 x 640 km, 82.5° (Epoch: 05 June)

Event Time Altitude Azimuth Distance (km) Brightness Sun altitude
Rises 18:52:52 0° 159° (SSE) 2,931 6.2 -5.1°
Reaches altitude 10° 18:55:19 10° 148° (SSE) 2,027 5.3 -5.5°
Maximum altitude 18:59:11 29° 89° (E) 1,182 4.0 -6.1°
Drops below altitude 10° 19:03:03 10° 30° (NNE) 2,036 5.6 -6.8°
Sets 19:05:31 0° 19° (NNE) 2,947 6.5 -7.1°
